Location: Unspecified
(35.7250°N, 0.0000°E)
Time: 19:10:47
(UTC+00:00)

Vanguard 1 - Pass Details

Date: 03 July 2019
Orbit: 653 x 3830 km, 34.3° (Epoch: 18 July)

Event Time Altitude Azimuth Distance (km) Brightness Sun altitude
Rises 07:21:41 0° 282° (WNW) 6,160 13.6 28.4°
Reaches altitude 10° 07:28:21 10° 265° (W) 4,412 12.9 29.8°
Maximum altitude 07:34:14 16° 233° (SW) 3,273 12.4 30.9°
Drops below altitude 10° 07:38:42 10° 198° (SSW) 3,173 12.5 31.8°
Sets 07:42:17 0° 176° (S) 3,720 13.0 32.6°
